| time (UTC) | temp C | wind direction | speed KPH | gust KPH | rain 1hr cm | rain 24hr cm | rain mn cm | humidity % | barometer mb |
| 20260509224523 | 32 | 134 | 1.6 | 8.0 | 0.00 | 0.00 | 0.00 | 45 | 1007.2 |
| 20260509223027 | 32 | 147 | 0.0 | 9.7 | 0.00 | 0.00 | 0.00 | 42 | 1007.3 |
| 20260509221526 | 32 | 151 | 1.6 | 4.8 | 0.00 | 0.00 | 0.00 | 44 | 1007.3 |
| 20260509220019 | 32 | 291 | 1.6 | 8.0 | 0.00 | 0.00 | 0.00 | 42 | 1007.5 |
| 20260509214519 | 31 | 61 | 4.8 | 8.0 | 0.00 | 0.00 | 0.00 | 44 | 1007.6 |
| 20260509213016 | 31 | 54 | 3.2 | 8.0 | 0.00 | 0.00 | 0.00 | 40 | 1007.7 |
| 20260509211529 | 31 | 38 | 3.2 | 11.3 | 0.00 | 0.00 | 0.00 | 42 | 1007.9 |
| 20260509210016 | 31 | 26 | 6.4 | 12.9 | 0.00 | 0.00 | 0.00 | 39 | 1008.1 |
| 20260509204513 | 31 | 26 | 1.6 | 9.7 | 0.00 | 0.00 | 0.00 | 44 | 1008.4 |
| 20260509203026 | 31 | 69 | 4.8 | 14.5 | 0.00 | 0.00 | 0.00 | 44 | 1008.5 |
| 20260509201509 | 31 | 44 | 3.2 | 6.4 | 0.00 | 0.00 | 0.00 | 47 | 1008.6 |
| 20260509200007 | 30 | 22 | 4.8 | 9.7 | 0.00 | 0.00 | 0.00 | 48 | 1008.9 |
| 20260509194505 | 30 | 309 | 1.6 | 8.0 | 0.00 | 0.00 | 0.00 | 49 | 1008.9 |
| 20260509193003 | 30 | 61 | 6.4 | 14.5 | 0.00 | 0.00 | 0.00 | 51 | 1009.0 |
| 20260509191502 | 30 | 38 | 4.8 | 9.7 | 0.00 | 0.00 | 0.00 | 52 | 1009.1 |
| 20260509190001 | 30 | 350 | 4.8 | 14.5 | 0.00 | 0.00 | 0.00 | 53 | 1009.3 |
| 20260509184558 | 30 | 317 | 0.0 | 14.5 | 0.00 | 0.00 | 0.00 | 55 | 1009.4 |
| 20260509183046 | 29 | 202 | 1.6 | 14.5 | 0.00 | 0.00 | 0.00 | 54 | 1009.8 |
| 20260509181554 | 29 | 259 | 3.2 | 11.3 | 0.00 | 0.00 | 0.00 | 58 | 1009.9 |
| 20260509180042 | 28 | 271 | 1.6 | 11.3 | 0.00 | 0.00 | 0.00 | 58 | 1010.0 |
| 20260509174541 | 28 | 213 | 0.0 | 14.5 | 0.00 | 0.00 | 0.00 | 59 | 1010.1 |
| 20260509173037 | 28 | 54 | 4.8 | 11.3 | 0.00 | 0.00 | 0.00 | 60 | 1010.3 |
| 20260509171536 | 28 | 297 | 1.6 | 16.1 | 0.00 | 0.00 | 0.00 | 61 | 1010.4 |
| 20260509170034 | 27 | 32 | 4.8 | 12.9 | 0.00 | 0.00 | 0.00 | 61 | 1010.4 |
| 20260509164533 | 27 | 319 | 6.4 | 16.1 | 0.00 | 0.00 | 0.00 | 63 | 1010.6 |
| 20260509163046 | 27 | 5 | 6.4 | 12.9 | 0.00 | 0.00 | 0.00 | 62 | 1010.6 |
| 20260509161528 | 26 | 281 | 8.0 | 16.1 | 0.00 | 0.00 | 0.00 | 62 | 1010.8 |
| 20260509160027 | 26 | 313 | 4.8 | 12.9 | 0.00 | 0.00 | 0.00 | 65 | 1010.9 |
| 20260509154524 | 26 | 277 | 1.6 | 12.9 | 0.00 | 0.00 | 0.00 | 65 | 1010.8 |
| 20260509153022 | 25 | 292 | 3.2 | 14.5 | 0.00 | 0.00 | 0.00 | 70 | 1010.6 |
| 20260509151516 | 25 | 58 | 3.2 | 9.7 | 0.00 | 0.00 | 0.00 | 71 | 1010.5 |
| 20260509150014 | 24 | 296 | 3.2 | 12.9 | 0.00 | 0.00 | 0.00 | 71 | 1010.6 |
| 20260509144513 | 24 | 5 | 4.8 | 14.5 | 0.00 | 0.00 | 0.00 | 74 | 1010.5 |
| 20260509143009 | 23 | 321 | 4.8 | 12.9 | 0.00 | 0.00 | 0.00 | 74 | 1010.6 |
| 20260509141505 | 23 | 31 | 4.8 | 12.9 | 0.00 | 0.00 | 0.00 | 80 | 1010.7 |
| 20260509140003 | 22 | 303 | 4.8 | 16.1 | 0.00 | 0.00 | 0.00 | 81 | 1010.8 |
| 20260509134601 | 22 | 290 | 6.4 | 16.1 | 0.00 | 0.00 | 0.00 | 81 | 1011.0 |
| 20260509133105 | 21 | 306 | 3.2 | 12.9 | 0.00 | 0.00 | 0.00 | 82 | 1010.7 |
| 20260509131557 | 21 | 301 | 6.4 | 14.5 | 0.00 | 0.00 | 0.00 | 82 | 1010.6 |
| 20260509130101 | 20 | 296 | 1.6 | 9.7 | 0.00 | 0.00 | 0.00 | 83 | 1010.7 |
| 20260509124606 | 20 | 265 | 3.2 | 9.7 | 0.00 | 0.00 | 0.00 | 84 | 1010.7 |
| 20260509123056 | 19 | 92 | 0.0 | 3.2 | 0.00 | 0.00 | 0.00 | 86 | 1010.6 |
| 20260509121555 | 18 | 95 | 0.0 | 0.0 | 0.00 | 0.00 | 0.00 | 86 | 1010.5 |
| 20260509120054 | 18 | 95 | 0.0 | 0.0 | 0.00 | 0.00 | 0.00 | 85 | 1010.4 |
| 20260509114558 | 18 | 94 | 0.0 | 0.0 | 0.00 | 0.00 | 0.00 | 83 | 1010.1 |
| 20260509113050 | 19 | 94 | 0.0 | 3.2 | 0.00 | 0.00 | 0.00 | 82 | 1009.9 |
| 20260509111547 | 20 | 46 | 0.0 | 1.6 | 0.00 | 0.00 | 0.00 | 80 | 1009.5 |
| 20260509110053 | 20 | 29 | 1.6 | 9.7 | 0.00 | 0.00 | 0.00 | 79 | 1009.4 |
| 20260509104546 | 20 | 306 | 3.2 | 12.9 | 0.00 | 0.00 | 0.00 | 77 | 1009.4 |
| 20260509103145 | 20 | 292 | 4.8 | 11.3 | 0.00 | 0.00 | 0.00 | 76 | 1009.6 |
| 20260509101543 | 21 | 313 | 9.7 | 19.3 | 0.00 | 0.00 | 0.00 | 77 | 1009.4 |
| 20260509100044 | 21 | 300 | 3.2 | 9.7 | 0.00 | 0.00 | 0.00 | 84 | 1009.4 |
| 20260509094542 | 21 | 325 | 8.0 | 32.2 | 0.00 | 0.00 | 0.00 | 85 | 1009.1 |
| 20260509093039 | 21 | 162 | 3.2 | 16.1 | 0.00 | 0.00 | 0.00 | 89 | 1006.9 |
| 20260509091537 | 21 | 134 | 3.2 | 14.5 | 0.00 | 0.00 | 0.00 | 90 | 1006.1 |
| 20260509090032 | 21 | 169 | 3.2 | 11.3 | 0.00 | 0.00 | 0.00 | 90 | 1006.9 |
| 20260509084532 | 21 | 154 | 1.6 | 11.3 | 0.00 | 0.00 | 0.00 | 90 | 1007.1 |
| 20260509083027 | 20 | 161 | 1.6 | 8.0 | 0.00 | 0.00 | 0.00 | 90 | 1007.6 |
| 20260509081525 | 20 | 151 | 1.6 | 6.4 | 0.00 | 0.00 | 0.00 | 90 | 1008.1 |
| 20260509080032 | 20 | 149 | 1.6 | 9.7 | 0.00 | 0.00 | 0.00 | 90 | 1008.5 |
| 20260509074522 | 21 | 161 | 0.0 | 8.0 | 0.00 | 0.00 | 0.00 | 90 | 1008.9 |
| 20260509073036 | 21 | 184 | 0.0 | 6.4 | 0.00 | 0.00 | 0.00 | 90 | 1009.9 |
| 20260509071517 | 21 | 188 | 0.0 | 3.2 | 0.00 | 0.00 | 0.00 | 90 | 1010.9 |
| 20260509070020 | 21 | 286 | 3.2 | 19.3 | 0.00 | 0.00 | 0.00 | 91 | 1012.1 |
| 20260509064513 | 20 | 272 | 4.8 | 14.5 | 0.00 | 0.00 | 0.00 | 91 | 1012.2 |
| 20260509063011 | 20 | 283 | 3.2 | 6.4 | 0.00 | 0.00 | 0.00 | 92 | 1011.8 |
| 20260509061509 | 20 | 303 | 3.2 | 6.4 | 0.00 | 0.00 | 0.00 | 92 | 1012.0 |
| 20260509060015 | 20 | 303 | 0.0 | 4.8 | 0.00 | 0.00 | 0.00 | 92 | 1011.3 |
| 20260509054513 | 20 | 297 | 0.0 | 4.8 | 0.00 | 0.00 | 0.00 | 91 | 1011.5 |
| 20260509053011 | 20 | 52 | 1.6 | 4.8 | 0.00 | 0.00 | 0.00 | 91 | 1011.3 |
| 20260509051501 | 20 | 125 | 0.0 | 0.0 | 0.00 | 0.00 | 0.00 | 90 | 1010.4 |
| 20260509050058 | 20 | 125 | 0.0 | 0.0 | 0.00 | 0.00 | 0.00 | 89 | 1010.3 |
| 20260509044559 | 21 | 125 | 0.0 | 0.0 | 0.00 | 0.00 | 0.00 | 88 | 1010.4 |
| 20260509043104 | 21 | 125 | 0.0 | 0.0 | 0.00 | 0.00 | 0.00 | 88 | 1010.4 |
| 20260509041557 | 21 | 125 | 0.0 | 0.0 | 0.00 | 0.00 | 0.00 | 88 | 1010.5 |
| 20260509040106 | 21 | 125 | 0.0 | 1.6 | 0.00 | 0.00 | 0.00 | 87 | 1010.3 |
| 20260509034556 | 22 | 125 | 1.6 | 6.4 | 0.00 | 0.00 | 0.00 | 86 | 1009.9 |
| 20260509033056 | 22 | 154 | 1.6 | 3.2 | 0.00 | 0.00 | 0.00 | 86 | 1009.3 |
| 20260509031555 | 22 | 178 | 0.0 | 8.0 | 0.00 | 0.00 | 0.00 | 86 | 1009.3 |
| 20260509030055 | 22 | 186 | 1.6 | 8.0 | 0.00 | 0.00 | 0.00 | 85 | 1009.1 |
| 20260509024554 | 22 | 160 | 1.6 | 12.9 | 0.00 | 0.00 | 0.00 | 85 | 1008.3 |
| 20260509023053 | 22 | 138 | 1.6 | 8.0 | 0.00 | 0.00 | 0.00 | 84 | 1008.5 |
| 20260509021553 | 22 | 119 | 0.0 | 6.4 | 0.00 | 0.00 | 0.00 | 84 | 1008.7 |
| 20260509020051 | 22 | 143 | 0.0 | 1.6 | 0.00 | 0.00 | 0.00 | 83 | 1008.7 |
| 20260509014550 | 22 | 143 | 0.0 | 0.0 | 0.00 | 0.00 | 0.00 | 82 | 1008.9 |
| 20260509013100 | 23 | 143 | 0.0 | 3.2 | 0.00 | 0.00 | 0.00 | 82 | 1008.9 |
| 20260509011549 | 23 | 143 | 0.0 | 1.6 | 0.00 | 0.00 | 0.00 | 81 | 1008.7 |
| 20260509010048 | 23 | 142 | 0.0 | 3.2 | 0.00 | 0.00 | 0.00 | 81 | 1008.5 |
| 20260509004609 | 23 | 142 | 0.0 | 3.2 | 0.00 | 0.00 | 0.00 | 81 | 1008.0 |
| 20260509003049 | 23 | 142 | 1.6 | 6.4 | 0.00 | 0.00 | 0.00 | 80 | 1008.0 |
| 20260509001544 | 23 | 140 | 0.0 | 4.8 | 0.00 | 0.00 | 0.00 | 80 | 1008.5 |
| 20260509000044 | 23 | 140 | 0.0 | 4.8 | 0.00 | 0.00 | 0.00 | 79 | 1008.6 |
| 20260508234546 | 23 | 140 | 0.0 | 4.8 | 0.00 | 0.00 | 0.00 | 79 | 1008.8 |
| 20260508233144 | 23 | 140 | 0.0 | 6.4 | 0.00 | 0.00 | 0.00 | 79 | 1008.6 |
| 20260508231541 | 23 | 149 | 0.0 | 8.0 | 0.00 | 0.00 | 0.00 | 79 | 1008.7 |
| 20260508230052 | 23 | 124 | 0.0 | 6.4 | 0.00 | 0.00 | 0.00 | 78 | 1008.7 |